Orbital Elements at Epoch 2458538.5 (2019-Feb-24.0) TDB
Reference: JPL 4 (heliocentric ecliptic J2000)
Element | Value | Uncertainty (1-sigma) | Units |
e | .6551067814351935 | 0.011866 | |
a | 80.10933608907783 | 3.0292 | au |
q | 27.62916676085186 | 0.10316 | au |
i | 18.67744236768702 | 0.18938 | deg |
node | 68.36735556813215 | 0.80827 | deg |
peri | 232.9742411768344 | 91.648 | deg |
M | 182.8435717843268 | 335.01 | deg |
tp | 2587416.129827867640 (2372-Jan-02.62982787) | 2.3641e+05 | TDB |
period | 261892.5387316408 717.02 | 14855 40.67 | d yr |
n | .001374609607984629 | 7.7969e-05 | deg/d |
Q | 132.5895054173038 | 5.0137 | au |
|
| | Orbit Determination Parameters
Additional Information
|